| time (UTC) | temp C | wind direction | speed KPH | gust KPH | rain 1hr cm | rain 24hr cm | rain mn cm | humidity % | barometer mb |
| 20260831230804 | 12 | 89 | 1.6 | 4.8 | 0.00 | 0.00 | 0.00 | 76 | 998.9 |
| 20260831230305 | 12 | 4 | 0.0 | 4.8 | 0.00 | 0.00 | 0.00 | 75 | 999.0 |
| 20260831220804 | 12 | 110 | 0.0 | 3.2 | 0.00 | 0.00 | 0.00 | 76 | 999.3 |
| 20260831220304 | 12 | 3 | 1.6 | 9.7 | 0.00 | 0.00 | 0.00 | 74 | 999.3 |
| 20260831210805 | 11 | 37 | 1.6 | 3.2 | 0.00 | 0.00 | 0.00 | 78 | 999.8 |
| 20260831210304 | 11 | 59 | 0.0 | 8.0 | 0.00 | 0.00 | 0.00 | 77 | 999.8 |
| 20260831200804 | 11 | 57 | 1.6 | 3.2 | 0.00 | 0.00 | 0.00 | 79 | 1000.3 |
| 20260831200305 | 11 | 32 | 1.6 | 9.7 | 0.00 | 0.00 | 0.00 | 79 | 1000.3 |
| 20260831190805 | 10 | 346 | 3.2 | 8.0 | 0.00 | 0.00 | 0.00 | 83 | 1001.0 |
| 20260831180305 | 7 | 268 | 4.8 | 9.7 | 0.00 | 0.00 | 0.00 | 91 | 1001.7 |
| 20260831170804 | 6 | 358 | 3.2 | 4.8 | 0.00 | 0.00 | 0.00 | 95 | 1002.2 |
| 20260831170304 | 6 | 333 | 3.2 | 9.7 | 0.00 | 0.00 | 0.00 | 95 | 1002.3 |
| 20260831160805 | 6 | 325 | 4.8 | 8.0 | 0.00 | 0.00 | 0.00 | 96 | 1002.6 |
| 20260831160304 | 6 | 281 | 8.0 | 9.7 | 0.00 | 0.00 | 0.00 | 97 | 1002.7 |
| 20260831150804 | 3 | 279 | 4.8 | 8.0 | 0.00 | 0.00 | 0.00 | 99 | 1003.4 |
| 20260831150304 | 3 | 296 | 4.8 | 8.0 | 0.00 | 0.00 | 0.00 | 99 | 1003.5 |
| 20260831140804 | 3 | 286 | 3.2 | 8.0 | 0.00 | 0.03 | 0.00 | 98 | 1004.0 |
| 20260831140305 | 3 | 277 | 4.8 | 11.3 | 0.00 | 0.03 | 0.00 | 98 | 1004.1 |
| 20260831130804 | 1 | 279 | 4.8 | 8.0 | 0.00 | 0.05 | 0.00 | 98 | 1004.5 |
| 20260831130304 | 1 | 158 | 6.4 | 9.7 | 0.00 | 0.05 | 0.00 | 98 | 1004.6 |
| 20260831120303 | 0 | 264 | 3.2 | 4.8 | 0.00 | 0.10 | 0.00 | 98 | 1005.5 |
| 20260831110803 | 0 | 278 | 3.2 | 4.8 | 0.00 | 0.23 | 0.00 | 98 | 1006.4 |
| 20260831110303 | 0 | 279 | 3.2 | 8.0 | 0.00 | 0.46 | 0.00 | 98 | 1006.5 |
| 20260831100803 | 0 | 276 | 3.2 | 4.8 | 0.00 | 0.66 | 0.00 | 98 | 1007.1 |
| 20260831100303 | 0 | 280 | 3.2 | 4.8 | 0.00 | 0.66 | 0.00 | 98 | 1007.2 |
| 20260831090303 | 0 | 272 | 4.8 | 8.0 | 0.00 | 1.27 | 0.00 | 98 | 1007.8 |
| 20260831080303 | 1 | 279 | 4.8 | 8.0 | 0.00 | 1.65 | 0.00 | 98 | 1008.3 |
| 20260831070812 | 2 | 154 | 4.8 | 8.0 | 0.00 | 2.03 | 0.00 | 98 | 1008.7 |
| 20260831070303 | 2 | 252 | 4.8 | 8.0 | 0.00 | 2.06 | 0.00 | 98 | 1008.8 |
| 20260831060803 | 4 | 268 | 4.8 | 4.8 | 0.00 | 2.18 | 1.65 | 96 | 1009.3 |
| 20260831060303 | 4 | 271 | 4.8 | 11.3 | 0.00 | 2.18 | 1.65 | 96 | 1009.3 |
| 20260831050802 | 7 | 149 | 4.8 | 9.7 | 0.00 | 2.18 | 1.65 | 92 | 1009.7 |
| 20260831050303 | 7 | 267 | 6.4 | 8.0 | 0.00 | 2.18 | 1.65 | 92 | 1009.8 |
| 20260831040802 | 9 | 25 | 4.8 | 8.0 | 0.00 | 2.18 | 1.65 | 86 | 1010.2 |
| 20260831030304 | 10 | 278 | 8.0 | 8.0 | 0.00 | 2.18 | 1.65 | 75 | 1010.2 |
| 20260831020803 | 11 | 33 | 1.6 | 3.2 | 0.00 | 2.21 | 1.65 | 70 | 1010.5 |
| 20260831010303 | 11 | 117 | 1.6 | 4.8 | 0.00 | 2.24 | 1.65 | 69 | 1010.7 |
| 20260831000802 | 11 | 87 | 1.6 | 8.0 | 0.00 | 2.24 | 1.65 | 76 | 1011.2 |